[[{"header":{"parameterUnit":"m.s-1","parameterCategory":1,"la1":30.2991,"la2":30.254,"lo1":-89.0895,"lo2":-89.0444,"dy":0.0017,"dx":0.0017,"nx":28,"ny":28,"refTime":"2025-12-14T09:00:00:Z","depth":0,"parameterNumber":2,"parameterNumberName":"U-component_of_WINDS"},"data":[0,0,0,0,0,0,0,0,0,0,0,0,0,0,0,0,0,0,0,0,0,0,0,0,0,0,0,0,0,0,0,0,0,0,0,0,0,0,0,0,0,0,0,0,0,0,0,0,0,0,0,0,0,0,0,0,0,0,-2.3618,-2.3618,0,-2.3678,-2.3679,-2.368,-2.3635,-2.3633,-2.3631,-2.3629,-2.3691,-2.3695,-2.3698,0,0,0,0,0,0,0,0,0,0,0,0,0,-2.3462,-2.3465,-2.3618,-2.3618,-2.3619,-2.3678,-2.3679,-2.368,-2.3635,-2.3633,-2.3631,-2.3628,-2.369,-2.3694,-2.3698,0,0,0,0,0,0,0,0,0,0,0,0,0,-2.3527,-2.3466,-2.3618,-2.3604,-2.3603,-2.3678,-2.3679,-2.368,-2.3636,-2.3633,-2.363,-2.3627,-2.3689,-2.3694,-2.3699,-2.379,0,0,-2.3715,-2.3717,0,0,0,0,0,0,0,0,-2.3523,-2.3533,-2.3605,-2.3605,-2.3605,-2.3646,-2.3647,-2.3717,-2.3637,-2.3624,-2.3629,-2.3626,-2.3679,-2.3685,-2.3702,-2.3793,-2.3796,-2.3715,-2.3719,-2.3721,-2.3722,0,0,0,0,0,0,0,-2.3519,-2.353,-2.3642,-2.3606,-2.3606,-2.3595,-2.3601,-2.366,-2.3667,-2.3625,-2.3621,-2.3629,-2.3678,-2.3697,-2.3703,-2.3797,-2.3715,-2.372,-2.3723,-2.3725,-2.3964,-2.3967,0,0,0,0,0,0,-2.3516,-2.3526,-2.364,-2.3643,-2.3556,-2.36,-2.3607,-2.3636,-2.3666,-2.3668,-2.3632,-2.3627,-2.369,-2.3697,-2.3705,-2.3813,-2.3721,-2.3726,-2.3729,-2.396,-2.3964,-2.3968,0,0,0,0,0,0,-2.3513,-2.3526,-2.3637,-2.3584,-2.3597,-2.3606,-2.3639,-2.3639,-2.3658,-2.3672,-2.3672,-2.3651,-2.3688,-2.3698,-2.3769,-2.3815,-2.3728,-2.3733,-2.3957,-2.3962,-2.3966,-2.403,0,0,0,0,0,0,-2.3508,-2.3525,-2.356,-2.3585,-2.36,-2.37,-2.3642,-2.3642,-2.3667,-2.3662,-2.3689,-2.3691,-2.3686,-2.3762,-2.3774,-2.382,-2.3737,-2.3952,-2.3959,-2.3964,-2.4024,-2.4036,-2.4047,0,0,0,0,0,-2.3503,-2.3576,-2.3562,-2.3576,-2.3644,-2.3703,-2.3712,-2.3705,-2.3671,-2.3706,-2.3714,-2.369,-2.3808,-2.3769,-2.3783,-2.3831,-2.395,-2.3957,-2.3964,-2.4019,-2.4034,-2.4047,0,0,0,0,0,0,-2.3557,-2.3579,-2.3564,-2.3648,-2.3674,-2.3695,-2.3739,-2.3721,-2.3758,-2.3751,-2.3741,-2.3747,-2.3821,-2.3834,-2.379,-2.3921,-2.3873,-2.3884,-2.391,-2.3925,-2.3936,-2.3931,-2.3741,0,0,0,0,0,-2.3578,-2.3624,-2.3642,-2.3714,-2.3727,-2.3731,-2.3757,-2.3749,-2.3776,-2.3786,-2.38,-2.3827,-2.3869,-2.3898,-2.3938,-2.4025,-2.403,-2.4065,-2.4077,-2.4086,-2.4095,-2.4142,-2.4157,-2.3991,-2.3991,-2.3991,0,0,-2.3624,-2.3641,-2.3671,-2.3725,-2.3744,-2.3792,-2.3741,-2.3794,-2.3828,-2.3794,-2.3862,-2.3873,-2.3902,-2.3981,-2.4017,-2.3993,-2.4142,-2.4096,-2.4103,-2.4107,-2.4151,-2.4166,-2.418,-2.3996,-2.3995,-2.3995,0,0,-2.373,-2.3749,-2.381,-2.383,-2.386,-2.3862,-2.3877,-2.3901,-2.3907,-2.3974,-2.3949,-2.3991,-2.4065,-2.4086,-2.4107,-2.422,-2.4199,-2.4233,-2.4294,-2.4339,-2.4352,-2.4364,-2.4403,-2.4418,-2.4242,-2.4242,-2.4243,0,-2.3782,-2.3853,-2.3844,-2.3898,-2.3922,-2.3893,-2.3955,-2.3975,-2.4016,-2.4033,-2.4007,-2.4098,-2.4116,-2.4199,-2.4227,-2.4245,-2.4261,-2.423,-2.4351,-2.4363,-2.4373,-2.4411,-2.4426,-2.4246,-2.4246,-2.4246,-2.4245,0,-2.3915,-2.3965,-2.4011,-2.4051,-2.408,-2.4138,-2.4137,-2.4168,-2.4157,-2.4162,-2.4231,-2.4251,-2.4294,-2.4313,-2.4304,-2.4395,-2.438,-2.4352,-2.4305,-2.4393,-2.4428,-2.4443,-2.4252,-2.4251,-2.4249,-2.4248,0,0,-2.4058,-2.4092,-2.4109,-2.4126,-2.4156,-2.4194,-2.425,-2.4292,-2.4318,-2.4347,-2.4394,-2.4457,-2.4431,-2.4455,-2.4447,-2.4487,-2.4574,-2.4455,-2.4455,-2.4476,-2.4675,-2.4695,-2.4712,-2.4561,-2.4563,-2.4566,-2.4673,0,-2.4165,-2.4263,-2.4256,-2.4348,-2.4393,-2.4365,-2.4414,-2.4438,-2.4443,-2.4482,-2.4488,-2.4532,-2.4496,-2.451,-2.4548,-2.4556,-2.4614,-2.4548,-2.4603,-2.4605,-2.4596,-2.4731,-2.4752,-2.4852,-2.4686,-2.4689,-2.469,0,-2.4303,-2.4337,-2.4433,-2.4455,-2.4474,-2.4518,-2.4555,-2.4593,-2.4619,-2.462,-2.4646,-2.4631,-2.4687,-2.4638,-2.4715,-2.467,-2.4692,-2.4699,-2.4703,-2.4708,-2.4653,-2.4738,-2.4884,-2.4899,-2.4712,-2.471,-2.4709,0,-2.4396,-2.4466,-2.4532,-2.4548,-2.4576,-2.4607,-2.462,-2.4643,-2.4669,-2.4701,-2.4717,-2.4756,-2.4778,-2.4808,-2.4804,-2.4769,-2.4882,-2.4833,-2.4884,-2.4884,-2.4909,-2.4907,-2.506,-2.4924,-2.4924,-2.4924,-2.4923,0,-2.4516,-2.4576,-2.4574,-2.4615,-2.4681,-2.4672,-2.4737,-2.4747,-2.4767,-2.4809,-2.4788,-2.4828,-2.4821,-2.486,-2.4858,-2.4921,-2.4931,-2.4933,-2.4932,-2.4935,-2.4935,-2.4949,-2.4942,-2.4928,-2.4927,-2.4926,-2.4925,0,-2.4632,-2.4633,-2.4703,-2.4723,-2.473,-2.4778,-2.4795,-2.4833,-2.4837,-2.489,-2.4902,-2.4907,-2.4953,-2.4952,-2.5004,-2.5002,-2.5079,-2.507,-2.5071,-2.5069,-2.5119,-2.5114,-2.5286,-2.5308,-2.5159,-2.516,-2.5161,0,-2.4708,-2.4753,-2.4778,-2.4805,-2.482,-2.4863,-2.4888,-2.4881,-2.4908,-2.4941,-2.4975,-2.5018,-2.5052,-2.5126,-2.5134,-2.5174,-2.5165,-2.5222,-2.5171,-2.5172,-2.5165,-2.5162,-2.5166,-2.5232,-2.5234,-2.5235,-2.5237,0,-2.4843,-2.4841,-2.4879,-2.4917,-2.4948,-2.4977,-2.5004,-2.5027,-2.5023,-2.5055,-2.51,-2.5127,-2.5179,-2.5222,-2.526,-2.5273,-2.5254,-2.5253,-2.5266,-2.527,-2.5268,-2.5269,-2.5098,-2.5249,-2.5248,-2.5247,-2.5246,-2.5245,-2.4941,-2.4979,-2.5003,-2.5045,-2.5065,-2.509,-2.5127,-2.5135,-2.5173,-2.5215,-2.5208,-2.5259,-2.5283,-2.5331,-2.5348,-2.5387,-2.5367,-2.5387,-2.5392,-2.5397,-2.5402,-2.5262,-2.5394,-2.5394,-2.5393,-2.5393,-2.5393,0,-2.5074,-2.5088,-2.5127,-2.5165,-2.5198,-2.5177,-2.5206,-2.5235,-2.528,-2.5304,-2.5338,-2.539,-2.5431,-2.5443,-2.5482,-2.5512,-2.5504,-2.5522,-2.552,-2.5523,-2.5419,-2.5402,-2.5528,-2.5528,-2.5528,-2.5528,-2.5528,-2.5528,-2.5148,-2.5211,-2.5212,-2.5285,-2.5298,-2.5348,-2.5365,-2.5389,-2.5407,-2.5467,-2.5501,-2.5508,-2.5526,-2.5567,-2.5604,-2.5606,-2.5621,-2.5643,-2.5642,-2.5544,-2.5531,-2.5518,-2.5502,-2.5647,-2.5647,-2.5743,-2.5744,-2.5745]},{"header":{"parameterUnit":"m.s-1","parameterCategory":1,"la1":30.2991,"la2":30.254,"lo1":-89.0895,"lo2":-89.0444,"dy":0.0017,"dx":0.0017,"nx":28,"ny":28,"refTime":"2025-12-14T09:00:00:Z","depth":0,"parameterNumber":3,"parameterNumberName":"V-component_of_WINDS"},"data":[0,0,0,0,0,0,0,0,0,0,0,0,0,0,0,0,0,0,0,0,0,0,0,0,0,0,0,0,0,0,0,0,0,0,0,0,0,0,0,0,0,0,0,0,0,0,0,0,0,0,0,0,0,0,0,0,0,0,-1.523,-1.5231,0,-1.5291,-1.5292,-1.5293,-1.5307,-1.5306,-1.5306,-1.5306,-1.5368,-1.537,-1.5372,0,0,0,0,0,0,0,0,0,0,0,0,0,-1.5123,-1.5125,-1.523,-1.5231,-1.5232,-1.5291,-1.5292,-1.5293,-1.5307,-1.5306,-1.5306,-1.5305,-1.5367,-1.537,-1.5372,0,0,0,0,0,0,0,0,0,0,0,0,0,-1.5175,-1.5125,-1.523,-1.5246,-1.5248,-1.5291,-1.5292,-1.5293,-1.5307,-1.5306,-1.5306,-1.5305,-1.5367,-1.5369,-1.5373,-1.5404,0,0,-1.5382,-1.5383,0,0,0,0,0,0,0,0,-1.5172,-1.5179,-1.5243,-1.5245,-1.5247,-1.5291,-1.5277,-1.533,-1.5307,-1.5285,-1.5306,-1.5305,-1.5343,-1.5348,-1.5361,-1.5407,-1.541,-1.5382,-1.5384,-1.5385,-1.5386,0,0,0,0,0,0,0,-1.5169,-1.5177,-1.5254,-1.5244,-1.5246,-1.5249,-1.5256,-1.5287,-1.5316,-1.5286,-1.5288,-1.5295,-1.5344,-1.5358,-1.5362,-1.5411,-1.5382,-1.5385,-1.5387,-1.5388,-1.5484,-1.5485,0,0,0,0,0,0,-1.5163,-1.5174,-1.5252,-1.5256,-1.5207,-1.5252,-1.5259,-1.5277,-1.5316,-1.5322,-1.5295,-1.5295,-1.5353,-1.5359,-1.5365,-1.5403,-1.5385,-1.5388,-1.539,-1.5484,-1.5485,-1.5485,0,0,0,0,0,0,-1.516,-1.5169,-1.525,-1.5215,-1.5226,-1.5254,-1.5275,-1.5279,-1.5293,-1.5323,-1.5328,-1.5304,-1.5352,-1.536,-1.5394,-1.5405,-1.539,-1.5393,-1.5483,-1.5484,-1.5485,-1.5481,0,0,0,0,0,0,-1.5157,-1.5169,-1.5182,-1.5215,-1.5227,-1.5279,-1.5275,-1.5281,-1.5298,-1.5299,-1.5333,-1.5337,-1.5353,-1.5389,-1.5397,-1.5409,-1.5395,-1.5482,-1.5483,-1.5485,-1.548,-1.5482,-1.5483,0,0,0,0,0,-1.5153,-1.5178,-1.5182,-1.5192,-1.5244,-1.528,-1.5286,-1.5303,-1.5299,-1.5312,-1.5331,-1.5336,-1.5403,-1.5393,-1.5401,-1.5415,-1.5481,-1.5483,-1.5485,-1.548,-1.5482,-1.5483,0,0,0,0,0,0,-1.5145,-1.5183,-1.5188,-1.5225,-1.5249,-1.5282,-1.5299,-1.5305,-1.5331,-1.533,-1.535,-1.5357,-1.539,-1.5406,-1.5394,-1.5447,-1.5442,-1.5445,-1.5435,-1.5437,-1.5439,-1.5434,-1.5397,0,0,0,0,0,-1.5148,-1.5174,-1.5205,-1.5235,-1.5246,-1.527,-1.5286,-1.5297,-1.5323,-1.5333,-1.5355,-1.5379,-1.5405,-1.5422,-1.5448,-1.5483,-1.5489,-1.5496,-1.5497,-1.5499,-1.5501,-1.5519,-1.5522,-1.5491,-1.5491,-1.5491,0,0,-1.5154,-1.5177,-1.5193,-1.5234,-1.5254,-1.5279,-1.5279,-1.5306,-1.5325,-1.5337,-1.537,-1.5387,-1.5415,-1.5449,-1.5465,-1.5463,-1.5511,-1.5501,-1.5501,-1.5503,-1.5521,-1.5524,-1.5527,-1.5492,-1.5492,-1.5491,0,0,-1.5177,-1.5198,-1.5224,-1.5243,-1.5273,-1.5289,-1.5295,-1.5327,-1.5338,-1.5371,-1.538,-1.5402,-1.5448,-1.5467,-1.5483,-1.5511,-1.5516,-1.5519,-1.5526,-1.5543,-1.5546,-1.5548,-1.5557,-1.556,-1.5521,-1.5521,-1.5521,0,-1.518,-1.5219,-1.5236,-1.5263,-1.528,-1.5292,-1.5317,-1.5336,-1.5372,-1.5384,-1.5381,-1.5437,-1.5457,-1.5495,-1.5501,-1.5514,-1.5521,-1.5515,-1.5544,-1.5547,-1.5549,-1.5558,-1.5561,-1.5521,-1.5521,-1.5521,-1.5521,0,-1.5221,-1.5248,-1.5265,-1.53,-1.5319,-1.5345,-1.5365,-1.5382,-1.5391,-1.5406,-1.5439,-1.5463,-1.5493,-1.5503,-1.5512,-1.5541,-1.5539,-1.554,-1.5536,-1.5552,-1.556,-1.5564,-1.5521,-1.5521,-1.5521,-1.5521,0,0,-1.5242,-1.5284,-1.5291,-1.5306,-1.5338,-1.5359,-1.5385,-1.5414,-1.5428,-1.5452,-1.5474,-1.5511,-1.5511,-1.5529,-1.554,-1.5555,-1.5574,-1.5554,-1.5555,-1.5556,-1.5607,-1.5605,-1.5609,-1.5578,-1.5579,-1.5579,-1.5604,0,-1.5269,-1.5315,-1.5331,-1.5369,-1.5393,-1.5404,-1.5426,-1.5448,-1.5462,-1.5484,-1.55,-1.5526,-1.5525,-1.5536,-1.5551,-1.5569,-1.5584,-1.5567,-1.5597,-1.5598,-1.559,-1.5614,-1.5613,-1.5635,-1.5607,-1.5608,-1.5608,0,-1.5306,-1.533,-1.5371,-1.5399,-1.541,-1.543,-1.5457,-1.5478,-1.5503,-1.5512,-1.5531,-1.554,-1.5566,-1.556,-1.5596,-1.5584,-1.5597,-1.5607,-1.5608,-1.5612,-1.5604,-1.5617,-1.5642,-1.5645,-1.5614,-1.5614,-1.5613,0,-1.5316,-1.5359,-1.5389,-1.5401,-1.5435,-1.5448,-1.5463,-1.5487,-1.5503,-1.5526,-1.5537,-1.5563,-1.5577,-1.5597,-1.5613,-1.5607,-1.5647,-1.5642,-1.5654,-1.5654,-1.5662,-1.5662,-1.569,-1.5672,-1.5671,-1.5671,-1.5671,0,-1.5344,-1.5368,-1.5393,-1.5411,-1.5438,-1.5455,-1.5481,-1.5496,-1.5517,-1.5538,-1.5548,-1.5567,-1.5587,-1.5608,-1.5621,-1.5648,-1.5654,-1.5662,-1.5665,-1.5661,-1.566,-1.567,-1.5668,-1.5672,-1.5672,-1.5672,-1.5672,0,-1.536,-1.5378,-1.5411,-1.5439,-1.5447,-1.5465,-1.549,-1.5507,-1.5521,-1.5547,-1.5554,-1.5576,-1.5602,-1.5619,-1.5652,-1.566,-1.5689,-1.5692,-1.5681,-1.5682,-1.5693,-1.5692,-1.5729,-1.5734,-1.5712,-1.5713,-1.5713,0,-1.5377,-1.5395,-1.5425,-1.544,-1.5454,-1.5478,-1.5493,-1.551,-1.5526,-1.5554,-1.5568,-1.5594,-1.5616,-1.5656,-1.5674,-1.5699,-1.5703,-1.5714,-1.5706,-1.5701,-1.5702,-1.57,-1.5702,-1.5715,-1.5715,-1.5715,-1.5715,0,-1.5403,-1.5411,-1.5434,-1.5459,-1.5477,-1.5498,-1.5519,-1.553,-1.555,-1.5567,-1.5593,-1.561,-1.5643,-1.5668,-1.5694,-1.5708,-1.5715,-1.5717,-1.5721,-1.5717,-1.5709,-1.5713,-1.5683,-1.5716,-1.5716,-1.5716,-1.5716,-1.5716,-1.542,-1.5436,-1.5459,-1.5484,-1.5501,-1.552,-1.5537,-1.5553,-1.5575,-1.5602,-1.5611,-1.5637,-1.5659,-1.5695,-1.571,-1.573,-1.5729,-1.5735,-1.5737,-1.5738,-1.5737,-1.5706,-1.5735,-1.5735,-1.5735,-1.5735,-1.5735,0,-1.5446,-1.5461,-1.5484,-1.5512,-1.5531,-1.5535,-1.5557,-1.5573,-1.5596,-1.5616,-1.5637,-1.5665,-1.5689,-1.5709,-1.5734,-1.5747,-1.575,-1.5752,-1.5751,-1.5754,-1.5737,-1.5731,-1.5749,-1.5749,-1.5749,-1.5749,-1.5749,-1.5749,-1.5463,-1.549,-1.55,-1.5535,-1.555,-1.5576,-1.5588,-1.5605,-1.5621,-1.5653,-1.5673,-1.5685,-1.5705,-1.5731,-1.5753,-1.5758,-1.5766,-1.5768,-1.5774,-1.5757,-1.5756,-1.5754,-1.5748,-1.577,-1.577,-1.5789,-1.5789,-1.579]}]]